Simultaneous Nadir Overpasses (SNOs) Predictions

Prediction of SNOs between AQUA and NOAA-19 Satellite Orbit:

Table of predicted SNOs for the next 14.0 days since TLE Epoch: 8/9/2025
Index Date (AQUA) Time (AQUA) Lat,Lon (AQUA) SZA (AQUA ) Date (NOAA-19) Time (NOAA-19) Lat,Lon (NOAA-19) SZA (NOAA-19 ) Distance(km) Time Diff (sec)
1 08/10/2025 03:08:35 -75.82, -40.27 119.70 08/10/2025 03:08:09 -75.79, -40.29 119.73 3.24 26
2 08/10/2025 03:57:56 75.92, 127.07 60.41 08/10/2025 03:59:08 75.96, 127.53 60.46 13.06 72
3 08/12/2025 05:15:43 75.80, 108.04 60.91 08/12/2025 05:15:25 75.81, 108.00 60.92 1.35 18
4 08/12/2025 06:05:03 -75.95, -84.74 118.94 08/12/2025 06:06:15 -75.98, -84.14 118.89 16.48 72
5 08/14/2025 07:22:49 -75.80,-103.67 118.45 08/14/2025 07:22:32 -75.83,-103.66 118.42 3.22 17
6 08/14/2025 08:12:18 76.30, 62.40 62.03 08/14/2025 08:13:24 76.30, 65.27 62.11 75.79 66
7 08/16/2025 09:29:57 75.84, 44.49 62.25 08/16/2025 09:29:48 75.83, 44.56 62.24 2.01 9
8 08/16/2025 10:19:25 -76.37,-149.54 117.26 08/16/2025 10:20:30 -76.37,-146.22 117.16 87.17 65
9 08/18/2025 11:37:02 -75.83,-167.20 117.09 08/18/2025 11:36:56 -75.82,-167.23 117.10 1.81 6
10 08/20/2025 13:44:08 75.82, -18.88 63.59 08/20/2025 13:44:11 75.83, -18.95 63.61 2.34 3
11 08/22/2025 15:51:13 -75.85, 129.30 115.67 08/22/2025 15:51:19 -75.83, 129.31 115.69 2.27 6



Historial Predications of SNOs between AQUA and NOAA-19
